www.pogodaiklimat.ru

Погода и климат >> Архив погоды >> Китай >> Фуцзянь >> Наньпин


ПОГОДА в Наньпине

  • Прогноз погоды в Наньпине
  • Монитор погоды в Наньпине

АРХИВ ПОГОДЫ в Наньпине

Время (UTC), дата Ветер
(напр.,м/с)
 
Видим.   Явления Облачность Т
(С)
Тd
(С)
f
(%)
Тe
(С)
Тes
(С)
Комфортность P
(гПа)
Po
(гПа)
Тmin
(С)
Tmax
(С)
R
(мм)
R24
(мм)
S
(см)
00 13.09 СВ 1 20 км 8/8 1000 м
[]
+29.0 +22.3 67 +38 +39 очень
душно
1010.2 995.7
03 13.09 В 3 26 км 3/3 1000 м
[]
+33.4 +22.2 52 +42 +52 опасность
перегрева
1009.2 994.9
06 13.09 СЗ 1 21 км 4/4 1000 м
[]
+35.6 +21.5 44 +43 +53 опасность
перегрева
1005.9 991.7 +26.4
09 13.09 З 3 24 км 1/1 1000 м
[]
+36.4 +21.4 42 +44 +45 опасность
перегрева
1005.1 991.0
12 13.09 ЮЗ 1 16 км 5/5 1000 м
[]
+31.2 +22.5 60 +41 +41 опасность
перегрева
1006.9 992.5
15 13.09 ЮВ 1 19 км н/о +29.6 +23.5 70 +40 +40 очень
душно
1008.2 993.7
18 13.09 В 2 22 км ?/? +28.1 +23.2 75 +38 +38 очень
душно
1008.0 990.9 +37.1
21 13.09 В 2 15 км н/о +26.8 +23.5 82 +36 +36 очень
душно
1008.4 993.8
00 14.09 В 2 14 км 3/3 1000 м
[]
+29.7 +23.9 71 +41 +44 опасность
перегрева
1009.5 995.0
03 14.09 Ю 2 19 км 4/4 1000 м
[]
+34.6 +21.3 46 +42 +52 опасность
перегрева
1008.4 994.2
06 14.09 СВ 2 27 км 8/8 1000 м
[]
+36.8 +16.4 30 +39 +42 очень
душно
1006.0 991.9 +26.6
09 14.09 В 3 22 км 1/1 1000 м
[]
+35.2 +20.7 43 +42 +43 опасность
перегрева
1006.1 991.9
12 14.09 Ю 1 15 км 5/5 1000 м
[]
+30.8 +21.9 59 +39 +39 очень
душно
1008.0 993.6
15 14.09 С 1 18 км н/о +29.7 +21.9 63 +38 +38 очень
душно
1009.6 995.1
18 14.09 В 1 16 км ?/? +27.9 +22.2 71 +36 +36 очень
душно
1008.9 994.3 +37.8
21 14.09 В 3 11 км н/о +26.1 +22.8 82 +35 +35 очень
душно
1009.0 994.4
00 15.09 ЮВ 1 12 км ясно +28.9 +22.6 69 +38 +43 очень
душно
1010.4 995.9
03 15.09 В 3 22 км 3/3 1000 м
[]
+33.8 +20.6 46 +41 +50 опасность
перегрева
1009.0 994.7
06 15.09 В 3 30 км 5/5 1000 м
[]
+35.4 +19.3 39 +41 +46 опасность
перегрева
1006.4 992.2 +25.6
09 15.09 В 5 23 км 3/3 1000 м
[]
+34.2 +21.3 47 +42 +42 опасность
перегрева
1005.7 991.5
12 15.09 ЮВ 2 22 км 5/5 1000 м
[]
+29.9 +22.9 66 +40 +40 очень
душно
1007.8 993.4
15 15.09 В 2 19 км н/о +27.9 +23.3 76 +38 +38 очень
душно
1008.8 994.2
18 15.09 В 3 15 км ?/? +26.2 +22.9 82 +35 +35 очень
душно
1008.3 993.7 +36.7
21 15.09 В 2 14 км н/о +24.9 +22.2 85 +32 +32 очень
душно
1008.7 994.0
00 16.09 В 1 12 км 1/1 1000 м
[]
+27.5 +22.5 74 +36 +40 очень
душно
1010.2 995.6
03 16.09 В 5 19 км 3/3 1000 м
[]
+32.4 +20.0 48 +39 +45 очень
душно
1009.2 994.9
06 16.09 В 4 19 км 3/3 1000 м
[]
+34.2 +20.6 45 +41 +48 опасность
перегрева
1006.6 992.4 +24.7
09 16.09 СВ 4 24 км ясно +33.4 +18.4 41 +38 +39 очень
душно
1006.3 992.0
12 16.09 С 1 18 км 1/1 1000 м
[]
+30.1 +20.1 55 +37 +37 очень
душно
1007.8 993.4
15 16.09 С 2 15 км н/о +28.2 +20.5 63 +35 +35 очень
душно
1009.0 994.5
18 16.09 В 1 13 км ?/? +25.8 +21.5 77 +33 +33 очень
душно
1009.4 994.7 +35.4
21 16.09 С 1 11 км н/о +24.8 +20.7 78 +31 +31 очень
душно
1010.4 995.7
00 17.09 СВ 3 16 км 1/1 600 м
[]
+26.6 +18.7 62 +32 +35 очень
душно
1012.7 998.0
03 17.09 В 2 29 км ясно +31.3 +15.7 39 +34 +50 душно 1011.5 997.1
06 17.09 СВ 1 28 км ясно +34.6 +16.4 34 +37 +54 опасность
солнечного
удара
1008.2 994.0 +24.1
09 17.09 С 3 27 км ясно +34.3 +16.6 35 +37 +38 очень
душно
1008.1 993.9
12 17.09 З 1 21 км 3/3 1000 м
[]
+29.6 +18.7 52 +35 +35 очень
душно
1010.0 995.5
15 17.09 С 2 24 км н/о +28.6 +17.8 52 +33 +33 очень
душно
1011.6 997.0
18 17.09 В 2 21 км ?/? +26.0 +19.4 67 +31 +31 очень
душно
1011.8 997.1 +35.5
21 17.09 СВ 2 20 км н/о +24.6 +17.3 64 +29 +29 душно 1012.9 998.1
00 18.09 СВ 4 18 км ясно +26.3 +16.3 54 +30 +32 душно 1014.9 1000.2
03 18.09 СВ 3 24 км ясно +30.3 +15.6 41 +33 +46 душно 1014.1 999.6
06 18.09 СВ 7 24 км 9/9 1000 м
[]
+31.5 +15.9 39 +34 +35 душно 1012.0 997.6 +24.2
09 18.09 СВ 2 29 км 5/5 1000 м
[]
+31.2 +16.4 41 +34 +35 душно 1012.1 997.7
12 18.09 С 2 29 км ясно +28.2 +15.8 47 +31 +31 душно 1013.7 999.1
15 18.09 В 2 30 км н/о +26.8 +12.1 40 +28 +28 жарко 1014.5 999.8
18 18.09 С 3 30 км ?/? +23.8 +11.8 47 +25 +25 комфорт 1014.3 999.5 +32.1
21 18.09 С 1 30 км н/о +21.7 +11.7 53 +24 +24 комфорт 1015.1 1000.2
00 19.09 ЮВ 2 27 км ясно +25.0 +13.9 50 +27 +31 жарко 1016.2 1001.4
03 19.09 В 2 30 км ясно +28.7 +11.7 35 +30 +46 жарко 1014.6 1000.0
06 19.09 С 1 30 км ясно +32.0 +10.7 27 +32 +48 жарко 1011.2 996.8 +20.5
09 19.09 С 3 30 км ясно +31.2 +11.1 29 +31 +32 жарко 1010.2 995.8
12 19.09 Ю 1 27 км ясно +26.2 +13.7 46 +28 +28 жарко 1011.7 997.0
15 19.09 З 1 30 км н/о +24.0 +13.5 52 +26 +26 жарко 1011.9 997.1
18 19.09 З 1 30 км ?/? +21.9 +12.5 55 +24 +24 комфорт 1011.4 996.5 +32.7
21 19.09 З 1 30 км н/о +19.3 +11.3 60 +21 +21 комфорт 1012.1 997.1

 

Местоположение метеостанции Наньпин (Фуцзянь, Китай): широта 26.63 долгота 118.00 высота над уровнем моря 128 м.

В архиве по умолчанию представлена погода в Наньпине за последнюю неделю. Архивные данные за месяц целиком и за предыдущие месяцы, начиная с января 2011 года, Вы можете получить, выбрав интересующий диапазон дат из раскрывающегося списка и нажав кнопку "Ввод!".


*Определитесь, кто Вы:
робот инопланетянин человек

Внимание! Время в таблицах - всемирное. Для получения местного времени необходимо прибавить поправку, которая равна 8 ч.

Смотрите также архив погоды в соседних городах и на ближайших метеорологических станциях:

Погода в Шаову (Фуцзянь, Китай) (94 км)
Погода в Йонъяне (Фуцзянь, Китай) (98 км)
Погода в Юйсян Шан (Фуцзянь, Китай) (102 км)
Погода в Уишане (Фуцзянь, Китай) (127 км)
Погода в Фучжоу (Фуцзянь, Китай) (141 км)
Погода в Пученге (Фуцзянь, Китай) (153 км)
Погода в Чжанпине (Фуцзянь, Китай) (160 км)
Погода в Гуанчане (Цзяньси, Китай) (168 км)
Погода в Наньчене (Цзяньси, Китай) (170 км)
Погода в Чантине (Фуцзянь, Китай) (185 км)

Пояснения к столбцам:

Ветер - указаны скорость ветра в м/с - средняя за 10 мин, порывы в срок и между сроками (в фигурных скобках) и направление, откуда дует ветер: С - северный, СВ - северо-восточный, В - восточный, ЮВ - юго-восточный, Ю - южный, ЮЗ - юго-западный, З - западный, СЗ - северо-западный.
Видимость - горизонтальная дальность видимости в метрах или километрах. При видимости от 1 до 10 км при отсутствии осадков обычно наблюдается дымка, при ухудшении видимости до 1 км и менее - туман. В сухую погоду видимость может ухудшаться дымом, пылью или мглою.
Явления - указаны атмосферные явления, наблюдавшиеся в срок или в последний час перед сроком; фигурными скобками обозначены явления, наблюдавшиеся между сроками (за 1-3 часа до срока); квадратными скобками обозначены град или гололедные отложения с указанием их диаметра в мм.
Облачность - указаны через наклонную черту общая и нижняя облачность в баллах и высота нижней границы облаков в метрах; квадратными скобками обозначены формы облаков: Ci - перистые, Cs - перисто-слоистые, Cc - перисто-кучевые, Ac - высококучевые, As - высокослоистые, Sc - слоисто-кучевые, Ns - слоисто-дождевые, Cu - кучевые, Cb - кучево-дождевые. Подробнее классификацию облаков см. в Атласе облаков (PDF).
T - Температура воздуха - температура, измеренная на высоте 2 м над землей.
Td - Температура точки росы - температура, при понижении до которой содержащийся в воздухе водяной пар достигнет насыщения.
f - Относительная влажность воздуха - влажноcть воздуха, измеренная на высоте 2 м над землей.
Te - Эффективная температура - температура, которую ощущает одетый по сезону человек в тени. Характеристика душности погоды. При расчете учитывается влияние влажности воздуха и скорости ветра на теплоощущения человека.
Tes - Эффективная температура на солнце - температура, которую ощущает человек, с поправкой на солнечный нагрев. Характеристика знойности погоды. Зависит от высоты солнца над горизонтом, облачности и скорости ветра. Ночью, в пасмурную погоду, а также при ветре 12 м/с и более поправка равна нулю.
P - Атмосферное давление - приведенное к уровню моря атмосферное давление.
Po - Атмосферное давление - измеренное на уровне метеостанции атмосферное давление.
Tmin - Минимальная температура - минимум температуры воздуха на высоте 2 м над землей.
Tmax - Максимальная температура - максимум температуры воздуха на высоте 2 м над землей.
R - Количество осадков - Количество выпавших осадков за период времени, мм. При наведении курсора мыши на число - период времени, за который выпало указанное количество осадков.
R24 - Количество осадков - Количество выпавших осадков за 24 часа, мм.
S - Снежный покров - Высота снежного покрова, см. При наведении курсора мыши на число - состояние снежного покрова и степень покрытия местности в баллах.